星链-37236(STARLINK-37236)

导读

STARLINK-37236(NORAD编号68781)是美国SpaceX公司星链(Starlink)卫星互联网星座中的一员,归属星链低轨互联网卫星项目。星链项目旨在构建覆盖全球的低延迟、高速宽带卫星互联网系统,为全球偏远地区、海洋等传统网络难以覆盖区域提供网络接入服务。该卫星运行在近地轨道,属于星链大规模组网计划的组成部分,依托低轨轨道优势缩短信号传输距离,降低通信延迟,助力实现全球无缝网络覆盖,目前可对其进行轨道跟踪观测,是SpaceX持续扩充星链星座部署的产物。

基本信息
目录编号:
68781
目录名称:
STARLINK-37236
国际标识:
2026-086R
轨道中心:
EARTH
卫星名称:
星链-37236
卫星全名:
星链-37236(STARLINK-37236)
卫星状态:
在轨 (已飞行145 天)
发射日期:
2026-04-19 UTC
国别 :
美国 (US)
星等 :
--
该卫星已列入 空间交会检测服务 Space Conjunction Data Service (SCDS) ,当前飞行风险评估等级: 无高风险
轨道信息
数据来源 国际轨道数据
星历时间: 2026-09-11T08:26:42+0800
18小时前
查看轨道信息
半长轴: 6843.636km
偏心率: 0.0001952
轨道倾角: 97.282°
近地点辐角 63.114°
升交点赤经 289.610°
平近点角 297.031°
近地点: 464.163km
远地点: 466.835km
周期: 93.905分钟
每日圈数: 15.334601
详细信息
固有亮度:
5
最大亮度:
2.5
卫星平台:
Starlink V1.0
覆盖范围:
全球
运营商:
太空探索技术公司
运营商所在国:
美国
制造商(研发单位):
太空探索技术公司
制造商所在国:
美国
使用方式:
暂无
卫星简介
Starlink 计划是 SpaceX 推出的全球卫星互联网项目,通过发射低轨道卫星,为全球尤其是偏远地区提供高速、低延迟的互联网服务。自 2019 年起,Starlink 已部署数千颗卫星,旨在缩小全球数字鸿沟,推动互联网普及。该项目还为军事、航空等行业提供通信支持,带来广泛经济效益。
2D轨道图
3D轨道图
轨道高度分析图
轨道倾角分析图
轨道综合分析图
查看轨道综合分析图
交会数据列表
事件ID 空间交会对象 最接近时刻(TCA) 交会距离 交会风险概率(CRP) 交会风险指数(CRI) 操作
CDM_260912-154905-113906-878121
2026-09-12T
15:49:02+0000
2.423 km
极远距离
1.749435E-6 低风险 0.4
CDM_260913-123904-779706-878121
2026-09-13T
12:39:48+0000
2.689 km
极远距离
1.549018E-6 低风险 0.39
CDM_260913-160506-589406-878121
2026-09-13T
16:05:32+0000
2.994 km
极远距离
1.075538E-6 低风险 0.36
CDM_260912-065906-001606-878121
2026-09-12T
06:59:52+0000
2.413 km
极远距离
1.075379E-6 低风险 0.36
与全量物体交会距离演化趋势
与全量物体交会风险概率演化趋势